This demonstration page uses our WeatherBlox Daily Observations layout. Learn more.

Left ArrowRight Arrow

34.16533, -84.80231

Hourly Observations for June 22, 2019

Temp ( °F °C ) Dew Point ( °F °C ) Humidity (%) Winds ( mph kmh ) Pressure ( in mb ) Visibility ( mi km ) Precip ( " mm )
12:53 am 00:53 Mostly Cloudy 80 26.7 74 23.3 82 82 Calm 30.01 1016 10 16 0.00 0.00
1:04 am 01:04 Cloudy with Nearby Thunderstorms 80 26.7 75 23.9 85 85 undefined N/A 30.07 1018 10 16 0.00 0.00
1:29 am 01:29 Cloudy with Thunderstorms 73 22.8 65 18.3 76 76 N 14 22 30.08 1019 10 16 0.00 0.03
1:44 am 01:44 Cloudy with Nearby Thunderstorms 71 21.7 66 18.9 84 84 NE 6 9 30.11 1020 10 16 0.00 0.03
1:53 am 01:53 Mostly Cloudy 71 21.7 66 18.9 84 84 ENE 8 13 30.08 1019 10 16 0.00 0.03
2:53 am 02:53 Clear 70 21.1 65 18.3 84 84 Calm 30.04 1017 10 16 0.00 0.00
3:53 am 03:53 Clear 68 20 65 18.3 90 90 SSW 3 6 30.00 1016 10 16 0.00 0.00
4:53 am 04:53 Clear 69 20.6 65 18.3 87 87 VRB 7 11 29.98 1015 10 16 0.00 0.00
5:53 am 05:53 Clear 70 21.1 65 18.3 84 84 NE 6 9 29.99 1016 10 16 0.00 0.00
6:53 am 06:53 Sunny 69 20.6 65 18.3 87 87 Calm 30.01 1016 10 16 0.00 0.00
7:53 am 07:53 Sunny 71 21.7 66 18.9 84 84 ESE 3 6 30.03 1017 10 16 0.00 0.00
8:53 am 08:53 Sunny 75 23.9 66 18.9 74 74 Calm 30.06 1018 10 16 0.00 0.00
9:53 am 09:53 Sunny 78 25.6 68 20 71 71 VRB 3 6 30.08 1019 10 16 0.00 0.00
10:53 am 10:53 Mostly Cloudy 80 26.7 68 20 67 67 VRB 3 6 30.09 1019 10 16 0.00 0.00
11:09 am 11:09 Partly Cloudy 81 27.2 69 20.6 67 67 Calm 30.09 1019 10 16 0.00 0.00
11:53 am 11:53 Partly Cloudy 85 29.4 72 22.2 65 65 VRB 5 7 30.08 1019 10 16 0.00 0.00
12:10 pm 12:10 Mostly Cloudy 84 28.9 72 22.2 67 67 SSW 7 11 30.08 1019 10 16 0.00 0.00
12:18 pm 12:18 Partly Cloudy 83 28.3 72 22.2 70 70 VRB 6 9 30.07 1018 10 16 0.00 0.00
12:53 pm 12:53 Mostly Cloudy 85 29.4 72 22.2 65 65 VRB 3 6 30.07 1018 10 16 0.00 0.00
1:53 pm 13:53 Partly Cloudy 89 31.7 71 21.7 55 55 VRB 5 7 30.05 1018 10 16 0.00 0.00
2:53 pm 14:53 Mostly Sunny 90 32.2 71 21.7 54 54 VRB 3 6 30.03 1017 10 16 0.00 0.00
7:53 pm 19:53 Sunny 83 28.3 62 16.7 49 49 VRB 5 7 30.02 1017 10 16 0.00 0.00
8:53 pm 20:53 Sunny 78 25.6 63 17.2 60 60 S 3 6 30.01 1016 10 16 0.00 0.00
9:53 pm 21:53 Mostly Clear 75 23.9 64 17.8 69 69 Calm 30.07 1018 10 16 0.00 0.00
10:53 pm 22:53 Clear 75 23.9 63 17.2 66 66 ENE 6 9 30.04 1017 10 16 0.00 0.00
11:53 pm 23:53 Clear 72 22.2 64 17.8 76 76 E 3 6 30.01 1016 10 16 0.00 0.00

Powered by AerisWeather